User: anonymous   Login
Location: Vancouver
(49.2500°N, 123.1330°W)
Time: 18:02:46
(UTC-07:00)
Language:

Cosmos 1408 Rocket - Orbit

View from above orbital plane
View from above orbital plane
View from above satellite
View from above satellite

Ground track
Ground track

The orbit data is extracted from the following two-line orbital elements,

1 13553U 82092B   15144.32367663  .00000219  00000-0  23415-4 0  9990
2 13553 082.5703 217.2632 0022052 023.0805 043.4953 14.83898004765085
Epoch (UTC): 24 May 2015 07:46:05
Eccentricity: 0.0022052
inclination: 82.5703°
perigee height: 601 km
apogee height: 632 km
right ascension of ascending node: 217.2632°
argument of perigee: 23.0805°
revolutions per day: 14.83898004
mean anomaly at epoch: 43.4953°
orbit number at epoch: 76508

The dashed part of the orbit path shows where the satellite is in the earth's shadow,  

DLR